Temperature
18 17 17 18 18 18 18 18 18 18 18 18 18 18 18 18 18 18 18 18 18 18 18 18 18 18 18 18 18 18 17 17 17 17 17 17 17 17 17 16 16 16 16
17 17 17 18 18 18 18 18 18 18 17 17 17 17 17 17 17 17 17 18 18 18 18 18 18 18 18 18 18 18 18 18 18 17 17 17 17 17 17 16 16 16 16
18 18 18 18 18 18 18 18 18 18 18 18 18 18 18 17 17 17 17 18 18 18 18 18 18 18 18 18 18 18 18 18 18 17 17 17 17 17 17 17 17 16 16
17 18 17 18 18 18 18 18 18 18 18 18 18 18 18 18 18 17 18 18 18 18 18 18 18 18 18 18 18 18 18 18 18 17 17 17 17 17 17 17 17 16 16
17 17 17 17 18 18 18 18 18 18 18 18 18 18 17 17 17 18 18 18 18 18 18 18 18 18 19 18 18 18 18 18 18 18 18 18 17 17 17 17 17 16 16
18 18 18 17 17 17 18 18 17 17 17 17 17 17 17 17 17 18 18 18 18 18 19 19 18 18 18 18 18 18 18 18 18 18 17 17 17 17 16 16 16 16 16
19 19 19 18 17 16 17 17 17 17 17 17 17 17 18 18 18 18 18 18 18 18 19 19 18 18 18 18 18 18 18 18 18 18 18 17 17 17 16 16 16 16 16
19 19 19 18 17 16 16 17 17 16 16 16 16 16 18 19 19 18 18 18 18 18 18 18 18 18 17 17 18 18 18 18 18 18 18 18 17 17 16 16 16 16 16
19 18 15 16 16 16 16 16 16 16 16 16 16 16 18 20 18 18 18 18 17 17 17 17 18 17 17 17 17 17 18 18 18 18 18 18 18 17 17 16 16 16 16
18 16 15 14 15 15 15 15 16 15 15 15 16 15 15 15 15 17 18 18 17 16 16 16 17 17 17 17 17 17 18 18 18 17 17 17 18 17 17 17 16 16 16
16 15 16 15 15 15 15 15 16 15 15 15 15 15 15 15 15 14 15 17 17 17 17 16 16 16 17 17 17 17 17 18 18 17 17 17 17 17 17 17 16 16 16
15 14 14 14 14 15 15 16 16 15 15 14 14 14 14 14 14 14 14 15 16 17 16 16 16 16 16 16 17 17 17 17 17 17 17 16 17 16 16 17 16 16 16
13 14 14 14 14 14 15 16 15 14 14 14 14 14 14 14 14 14 14 14 15 15 16 16 16 15 15 16 16 16 16 17 17 16 16 16 17 16 17 17 17 16 16
13 13 13 13 14 14 15 15 14 14 14 14 14 14 14 14 14 14 14 14 14 15 15 15 15 14 14 15 16 16 16 16 16 16 16 16 16 17 16 17 16 16 16
13 13 13 13 13 13 14 14 14 14 14 13 13 13 13 13 13 13 13 13 14 16 16 16 15 15 14 14 14 15 15 15 15 15 15 16 16 16 15 15 16 16 15
12 12 12 12 13 13 13 13 13 13 13 13 13 13 13 13 13 13 13 13 13 13 13 14 14 14 14 13 14 14 14 14 14 15 15 15 16 15 15 16 16 16 15
12 12 11 12 12 12 12 12 12 12 12 12 12 12 12 12 12 13 13 13 13 13 13 14 14 14 14 14 14 14 14 14 14 14 15 15 15 15 15 16 16 16 16
12 11 11 11 11 11 11 11 12 12 12 12 12 12 12 12 12 12 13 12 13 12 13 13 14 13 14 13 13 14 14 14 14 14 14 14 15 15 15 16 16 16 16
12 11 10 11 11 11 11 11 11 11 11 11 11 11 12 12 12 12 12 12 12 13 13 12 12 12 12 13 13 13 13 14 14 14 13 14 15 15 14 15 16 16 15
12 11 11 11 11 11 11 11 11 11 11 11 11 11 11 11 11 11 12 12 12 13 12 12 12 12 12 12 12 13 13 13 13 14 13 14 14 14 13 14 15 15 14
11 11 11 11 11 11 11 11 11 11 10 11 11 11 11 11 12 12 12 11 12 13 13 13 13 13 12 12 12 12 12 13 13 13 13 13 13 13 13 14 14 14 13
11 11 11 11 11 11 12 12 11 11 11 11 11 11 11 11 11 12 12 12 12 12 12 12 13 13 12 12 12 12 11 12 12 12 13 13 13 13 13 13 13 13 13
11 11 11 11 12 12 12 12 12 11 11 11 11 11 11 11 11 11 11 11 11 12 11 11 11 11 12 11 11 12 11 11 11 11 12 11 11 11 12 13 13 13 13
11 11 11 11 12 11 11 12 12 11 11 10 10 10 10 11 11 11 11 11 11 11 11 11 11 12 12 12 12 12 12 12 12 12 11 10 11 11 11 12 12 13 13
11 11 11 12 12 11 11 11 11 11 10 10 11 10 10 10 10 11 10 10 11 11 11 11 11 11 11 12 12 12 13 14 13 11 10 10 10 10 11 11 11 12 12
12 11 11 11 11 11 11 11 11 11 10 10 10 10 10 10 10 10 10 9 10 10 10 11 11 11 11 11 11 11 12 12 12 12 11 11 11 11 10 10 10 11 11
Wind_Speed
10 9 9 9 9 9 8 7 8 8 9 11 12 12 12 11 10 10 10 12 16 18 18 18 18 17 17 17 17 18 17 17 17 19 19 19 19 19 19 20 21 22 22
11 10 9 10 10 11 10 8 7 8 9 9 10 12 11 11 11 10 13 13 16 16 17 17 18 18 18 18 18 19 18 17 17 18 18 18 17 18 18 18 20 22 23
14 11 11 11 10 10 9 9 9 10 10 11 12 11 10 10 11 10 12 13 12 18 19 19 18 19 20 20 20 20 19 18 18 18 18 17 16 17 17 17 18 20 22
16 13 13 12 13 11 10 11 10 11 10 10 10 9 9 9 10 10 12 13 12 12 16 21 19 20 20 21 21 22 20 19 19 19 19 18 18 18 17 17 17 18 21
14 12 13 15 15 13 13 12 11 11 10 11 11 9 8 9 11 12 12 11 12 13 12 14 19 19 20 21 22 22 22 20 21 21 20 19 19 19 19 18 17 18 20
7 7 11 15 16 14 13 11 10 10 9 10 10 10 11 11 11 14 14 13 14 15 15 14 14 17 22 22 23 24 23 21 20 21 21 20 20 20 20 20 19 18 20
5 5 6 9 11 13 11 9 9 11 10 9 11 13 15 15 15 14 14 14 16 17 18 16 14 15 16 21 20 22 23 22 20 20 21 21 21 21 22 21 21 19 20
6 8 8 6 6 8 10 9 9 10 10 9 9 11 13 13 13 11 11 11 13 13 15 15 15 15 13 12 12 16 19 21 21 21 21 21 22 22 23 22 22 20 20
4 7 11 11 6 7 7 7 8 10 10 9 7 7 7 9 7 8 10 10 10 10 10 11 12 12 13 12 10 11 15 17 19 20 21 21 22 21 22 22 22 22 21
12 7 2 6 1 5 6 6 6 8 8 8 7 9 11 10 6 7 8 9 8 8 8 7 8 9 11 10 11 11 9 14 14 16 18 19 19 20 20 21 22 23 23
12 8 6 6 7 6 5 7 5 6 6 7 6 7 8 8 9 7 9 10 7 8 8 8 6 7 9 9 10 12 13 13 11 10 11 11 12 12 13 17 21 23 25
8 8 8 9 8 6 6 6 5 8 7 7 7 6 6 5 6 7 7 8 9 8 4 7 7 8 8 9 10 4 8 10 9 7 7 6 10 13 15 18 21 24 26
6 8 10 8 7 6 5 5 7 9 7 7 7 7 4 5 6 6 5 5 6 7 5 5 4 5 4 4 4 2 10 11 8 7 7 10 14 17 20 22 23 25 26
4 4 6 8 8 7 7 6 6 4 4 5 6 5 3 3 2 3 2 4 6 5 4 1 1 2 2 2 4 4 6 10 7 7 9 12 16 19 21 20 21 22 24
6 5 3 5 6 5 5 5 4 4 4 5 4 3 3 2 2 4 3 4 5 6 4 2 1 1 4 3 3 4 5 6 5 7 9 13 16 17 19 19 19 20 21
5 5 4 4 4 3 2 4 4 3 4 1 2 2 1 2 3 4 4 4 5 4 3 3 5 8 8 7 4 4 3 3 5 6 8 11 12 14 16 14 14 18 19
5 5 5 4 4 5 5 4 4 3 2 1 2 2 2 2 3 3 4 3 4 4 7 6 5 5 5 5 6 6 4 4 4 8 6 8 10 10 9 6 8 12 15
5 5 5 4 4 5 6 5 5 5 4 3 3 2 3 3 2 3 4 5 5 5 6 8 7 7 7 8 8 8 4 4 3 5 6 6 7 6 5 3 3 8 13
6 5 6 6 5 5 5 6 6 6 6 5 5 5 4 3 5 6 6 6 6 4 4 4 5 6 7 9 11 8 6 5 3 7 8 8 6 4 2 5 7 8 12
9 8 9 9 8 7 7 8 7 7 7 6 6 6 5 5 7 7 5 6 7 6 7 6 7 7 7 8 10 10 10 7 4 4 3 3 5 6 5 7 9 11 13
9 9 10 10 9 8 8 8 8 8 8 9 8 8 7 6 6 6 6 8 9 9 8 5 8 9 10 10 10 6 8 9 7 5 5 3 2 5 6 5 3 5 10
8 10 11 11 10 8 8 9 7 9 9 9 9 8 8 6 8 8 8 7 8 8 10 10 11 10 11 10 10 8 8 6 5 4 3 2 3 4 4 5 8 8 10
8 9 10 10 10 8 7 8 6 9 10 9 9 8 10 11 9 8 4 4 5 4 4 6 9 10 10 11 11 10 9 6 5 5 4 4 6 5 5 3 4 10 13
7 6 8 9 10 7 4 7 6 9 9 9 8 8 8 10 10 9 7 8 7 8 7 7 7 8 8 10 11 8 4 3 3 4 4 4 6 6 8 5 6 2 8
5 5 6 8 10 8 3 3 4 9 8 7 7 7 7 9 13 15 9 7 7 8 2 2 3 6 8 7 9 11 10 9 7 9 5 1 2 3 5 5 6 5 1
6 4 7 8 9 8 3 5 6 6 7 6 6 7 9 9 12 14 10 9 9 9 9 7 4 5 6 5 8 11 10 9 8 7 8 6 4 2 2 3 4 4 3
Wind_Direction
249 247 252 259 261 262 253 251 267 273 280 271 267 269 272 272 268 266 273 238 224 231 237 240 241 239 236 239 234 230 232 232 230 231 232 233 234 236 236 234 233 230 223
254 261 255 253 255 260 272 285 283 283 277 276 278 276 279 283 279 267 266 250 214 222 230 232 235 238 233 231 230 231 230 227 225 226 227 228 229 233 235 235 234 232 225
251 254 265 263 260 258 265 270 265 262 264 264 258 261 264 260 257 259 264 264 238 218 221 228 230 231 230 229 229 230 226 221 222 224 225 225 226 231 234 235 234 232 226
257 261 264 267 272 268 261 260 264 268 269 269 273 275 270 270 269 264 258 255 256 248 221 218 219 225 225 224 227 226 226 221 222 222 222 223 223 226 232 234 235 232 226
279 279 277 279 279 279 270 265 265 267 275 272 271 275 280 273 272 267 264 259 256 250 247 221 206 219 222 220 222 226 225 221 219 221 220 221 223 225 231 233 234 233 226
298 297 273 274 279 272 278 282 278 276 265 270 278 283 274 260 260 261 258 253 252 254 253 248 228 220 214 219 224 227 228 225 219 218 219 220 223 225 229 232 231 229 225
228 205 228 255 271 266 267 277 274 270 272 283 287 283 278 272 262 261 260 262 262 263 264 257 246 242 224 213 226 235 236 234 227 219 217 219 222 224 226 227 229 225 221
259 230 181 184 237 260 261 263 271 279 280 274 276 293 284 275 255 242 254 263 270 274 269 254 237 236 244 244 239 227 235 236 232 223 217 218 223 225 228 225 225 221 216
240 256 222 144 176 236 253 258 269 277 284 282 271 268 283 286 317 264 254 256 265 273 269 260 244 234 234 241 239 229 230 237 235 226 223 222 226 229 231 227 221 219 212
172 134 49 83 196 256 264 268 265 280 282 283 271 255 261 277 279 284 265 262 249 259 261 258 247 242 242 235 241 252 228 227 231 234 237 232 229 232 234 230 224 218 211
199 175 175 197 195 219 244 257 266 271 281 284 286 278 278 275 261 250 273 278 258 250 242 242 241 245 247 244 247 240 213 222 232 246 255 251 244 243 240 238 236 227 215
186 193 200 205 199 199 223 243 255 257 261 275 286 282 270 260 259 253 263 283 291 293 276 245 234 237 243 247 252 211 188 212 215 215 219 242 262 262 256 251 245 237 224
190 192 199 192 191 190 205 237 242 250 257 266 274 276 273 261 274 286 292 296 293 300 297 316 333 282 272 294 326 237 198 191 193 202 239 257 259 259 253 247 244 239 230
142 158 199 185 183 188 198 218 235 245 250 252 254 270 274 270 293 288 306 304 299 295 298 323 257 248 322 340 341 313 203 177 206 239 255 262 263 262 255 246 242 234 228
131 130 164 170 164 183 199 207 220 221 233 251 262 268 291 307 269 280 271 272 302 308 308 5 317 219 288 293 2 304 241 161 218 257 268 271 271 271 268 253 239 227 221
142 149 138 117 112 131 181 221 204 200 216 262 3 30 38 323 316 317 318 311 292 294 289 286 302 329 323 300 300 319 296 206 207 247 276 284 280 273 271 260 245 223 214
162 155 136 141 155 153 155 171 178 169 165 102 62 44 33 334 5 336 321 314 283 287 286 292 311 324 326 322 304 285 223 241 229 223 241 269 277 281 292 282 242 210 195
174 167 160 163 163 146 137 150 152 125 109 88 65 59 42 36 18 12 355 356 346 329 312 307 334 344 341 333 319 296 276 250 226 196 209 241 259 263 312 332 203 176 170
148 143 143 135 128 121 124 110 96 85 77 75 75 71 56 42 31 23 17 5 10 7 23 345 350 357 352 1 339 323 295 270 213 179 207 217 219 237 174 101 104 110 138
131 130 127 124 120 117 105 98 92 83 82 89 94 93 76 45 26 2 22 27 28 39 54 37 32 20 9 15 9 354 331 314 271 186 215 225 185 186 166 115 99 91 99
134 135 131 126 118 109 96 94 92 89 92 93 88 79 68 63 46 9 20 29 22 27 37 28 41 33 20 13 14 350 327 318 287 197 176 204 196 199 168 157 131 125 130
136 137 131 119 105 94 75 79 89 93 90 92 94 92 86 77 79 66 50 45 36 28 30 25 32 28 23 10 10 13 0 347 355 354 121 95 325 256 195 179 171 166 163
127 136 131 121 114 116 109 96 83 92 90 86 81 71 66 52 37 68 110 120 76 56 355 353 23 14 6 0 351 3 29 21 7 5 28 44 5 340 0 19 172 175 167
118 132 135 130 122 115 103 107 112 105 99 92 84 74 62 50 20 0 39 43 35 39 29 15 11 353 352 345 332 318 311 132 115 38 38 38 7 23 357 4 354 157 164
127 137 140 136 131 140 169 218 215 132 120 108 86 59 52 50 8 351 8 13 14 6 31 202 244 270 274 278 342 359 355 352 45 56 43 62 37 25 353 1 356 11 61
150 166 151 136 136 147 184 280 271 151 146 145 126 100 66 42 17 6 10 10 7 355 340 330 309 294 333 9 27 13 10 10 14 40 12 354 25 38 359 3 358 338 338
Height
1553 1552 1552 1553 1553 1553 1551 1550 1550 1549 1548 1547 1546 1545 1544 1543 1542 1541 1540 1539 1538 1537 1537 1538 1538 1538 1537 1538 1539 1540 1541 1542 1542 1543 1544 1544 1546 1546 1546 1545 1546 1547 1549
1550 1551 1551 1550 1551 1551 1550 1549 1547 1546 1544 1544 1543 1542 1541 1539 1538 1536 1537 1536 1534 1533 1533 1533 1533 1534 1534 1533 1534 1535 1536 1537 1538 1539 1539 1540 1541 1542 1541 1541 1542 1542 1543
1545 1546 1548 1548 1548 1547 1546 1545 1543 1542 1541 1540 1539 1538 1537 1536 1534 1533 1532 1531 1531 1529 1529 1529 1529 1528 1529 1529 1529 1530 1532 1532 1533 1534 1535 1536 1537 1537 1537 1537 1538 1538 1538
1540 1542 1544 1545 1545 1543 1542 1540 1539 1538 1537 1536 1536 1534 1533 1533 1531 1530 1528 1527 1527 1527 1525 1524 1524 1524 1524 1524 1525 1526 1527 1528 1529 1529 1530 1532 1532 1532 1532 1533 1534 1533 1534
1534 1536 1539 1541 1541 1539 1537 1536 1535 1534 1532 1531 1530 1529 1528 1527 1525 1525 1524 1522 1521 1521 1520 1521 1519 1520 1520 1520 1520 1521 1522 1523 1524 1524 1525 1527 1528 1529 1528 1529 1529 1529 1529
1525 1526 1529 1533 1536 1534 1532 1531 1530 1529 1527 1527 1525 1524 1523 1522 1519 1518 1517 1516 1516 1516 1516 1515 1515 1515 1514 1515 1515 1516 1517 1517 1518 1519 1520 1521 1522 1524 1524 1524 1524 1524 1524
1515 1514 1514 1517 1527 1530 1527 1525 1523 1523 1524 1523 1521 1518 1517 1517 1514 1512 1511 1510 1510 1510 1510 1509 1508 1509 1510 1509 1510 1511 1512 1512 1512 1513 1513 1515 1516 1518 1519 1519 1519 1519 1519
1507 1508 1506 1505 1516 1522 1522 1520 1519 1519 1520 1519 1517 1514 1512 1511 1507 1506 1506 1504 1503 1502 1502 1501 1501 1501 1503 1504 1505 1505 1506 1507 1507 1507 1507 1508 1509 1511 1513 1513 1513 1513 1514
1493 1494 1500 1495 1509 1514 1515 1514 1513 1515 1516 1515 1513 1512 1507 1503 1502 1503 1501 1499 1497 1496 1495 1495 1496 1495 1496 1497 1498 1500 1502 1503 1502 1502 1501 1502 1503 1504 1506 1507 1507 1508 1507
1485 1486 1496 1492 1502 1504 1507 1510 1508 1510 1510 1509 1508 1506 1504 1501 1499 1496 1495 1494 1492 1490 1489 1489 1489 1490 1491 1491 1492 1493 1494 1495 1497 1497 1496 1496 1497 1498 1500 1500 1501 1501 1501
1480 1481 1484 1490 1494 1497 1500 1505 1503 1504 1503 1503 1501 1501 1500 1497 1494 1493 1490 1489 1487 1487 1486 1486 1485 1485 1485 1485 1486 1487 1486 1487 1488 1490 1490 1490 1490 1491 1492 1493 1494 1495 1494
1477 1477 1477 1483 1487 1491 1496 1498 1498 1501 1500 1499 1498 1497 1497 1494 1491 1489 1487 1486 1484 1483 1481 1481 1480 1479 1479 1480 1480 1481 1481 1481 1481 1482 1483 1484 1484 1484 1484 1485 1485 1486 1486
1474 1476 1477 1480 1485 1487 1491 1495 1498 1498 1496 1495 1495 1497 1496 1493 1489 1486 1485 1484 1482 1480 1478 1477 1475 1474 1474 1475 1474 1474 1475 1474 1474 1474 1477 1479 1479 1478 1476 1475 1475 1476 1478
1473 1476 1479 1480 1482 1484 1488 1493 1494 1492 1493 1494 1494 1492 1493 1490 1488 1485 1482 1482 1481 1479 1477 1475 1473 1471 1470 1469 1468 1470 1470 1470 1469 1468 1470 1472 1472 1470 1468 1466 1465 1466 1468
1475 1478 1480 1481 1481 1483 1485 1489 1490 1490 1490 1491 1490 1488 1489 1489 1486 1486 1482 1480 1480 1477 1475 1474 1473 1471 1468 1467 1464 1464 1465 1464 1464 1464 1464 1465 1465 1463 1462 1460 1458 1457 1460
1477 1478 1478 1480 1481 1482 1483 1485 1487 1487 1488 1488 1487 1487 1487 1488 1485 1485 1484 1479 1478 1477 1475 1473 1471 1468 1466 1465 1463 1461 1460 1459 1459 1460 1459 1458 1458 1457 1456 1455 1452 1451 1452
1479 1481 1480 1481 1483 1481 1481 1482 1485 1486 1487 1486 1486 1487 1486 1485 1486 1484 1484 1481 1478 1476 1473 1472 1470 1466 1465 1463 1462 1461 1458 1456 1455 1455 1455 1454 1454 1453 1451 1450 1447 1445 1446
1478 1480 1481 1482 1484 1483 1482 1483 1486 1486 1485 1485 1486 1487 1486 1486 1486 1484 1482 1478 1475 1473 1472 1471 1469 1466 1464 1462 1461 1461 1458 1454 1451 1452 1452 1451 1450 1450 1448 1446 1444 1443 1443
1476 1479 1480 1481 1484 1485 1484 1484 1485 1485 1484 1484 1486 1488 1487 1487 1486 1483 1481 1479 1475 1473 1472 1470 1467 1464 1463 1460 1458 1458 1456 1453 1450 1449 1449 1447 1446 1446 1445 1443 1441 1440 1440
1476 1478 1480 1481 1482 1483 1485 1486 1486 1486 1486 1486 1486 1488 1489 1488 1486 1484 1482 1479 1476 1475 1473 1471 1467 1466 1464 1462 1457 1453 1452 1451 1450 1448 1446 1445 1444 1444 1442 1441 1440 1439 1439
1476 1479 1481 1482 1483 1484 1486 1486 1487 1488 1489 1488 1488 1489 1489 1487 1485 1484 1482 1479 1478 1477 1474 1473 1470 1470 1468 1467 1460 1453 1450 1447 1446 1445 1444 1444 1443 1444 1443 1441 1441 1440 1439
1478 1480 1482 1484 1484 1485 1487 1488 1490 1491 1491 1492 1492 1492 1490 1488 1484 1484 1484 1482 1480 1478 1477 1476 1474 1472 1471 1469 1464 1457 1451 1447 1445 1443 1443 1444 1445 1444 1444 1443 1443 1443 1443
1480 1482 1483 1485 1485 1487 1489 1490 1492 1493 1493 1494 1495 1494 1492 1489 1488 1490 1488 1484 1482 1478 1478 1478 1478 1475 1472 1468 1464 1458 1454 1451 1448 1445 1444 1445 1445 1443 1443 1443 1445 1445 1445
1480 1484 1486 1487 1487 1488 1490 1492 1494 1494 1494 1496 1496 1494 1494 1492 1491 1491 1489 1487 1486 1482 1480 1479 1479 1478 1474 1468 1463 1459 1455 1453 1452 1449 1444 1445 1445 1445 1444 1445 1446 1447 1447
1481 1485 1487 1487 1487 1489 1491 1493 1495 1496 1496 1497 1496 1495 1495 1493 1491 1491 1491 1488 1485 1483 1481 1480 1480 1478 1474 1470 1464 1461 1458 1455 1453 1453 1450 1447 1444 1446 1448 1447 1446 1446 1447
1481 1484 1487 1486 1487 1490 1492 1492 1494 1496 1496 1496 1496 1495 1494 1493 1492 1491 1489 1487 1485 1482 1481 1480 1480 1478 1475 1471 1466 1463 1461 1459 1456 1455 1453 1451 1449 1449 1450 1448 1448 1447 1446